Tracking 30260 objects as of 15-Feb-2025
HD Live streaming from Space Station
objects crossing your sky now

STARLINK-11510

Track STARLINK-11510 now!
10-day predictions
STARLINK-11510 is classified as:


NORAD ID: 62516
Int'l Code: 2025-004F
Perigee: 342.1 km
Apogee: 345.5 km
Inclination: 43.0 °
Period: 91.3 minutes
Semi major axis: 6714 km
RCS: Unknown
Launch date: January 8, 2025
Source: United States (US)
Launch site: AIR FORCE EASTERN TEST RANGE (AFETR)
Your satellite tracking list
Your tracking list is empty




NASA's NSSDC Master Catalog

Two Line Element Set (TLE):
1 62516U 25004F   25044.93611008 -.00005618  00000-0 -29485-4 0  9998
2 62516  42.9983 254.3843 0002518 267.6043  92.4539 15.77812071  6984
Source of the keplerian elements: AFSPC